Wind_Speed
7 8 10 12 13 14 13 11 9 7 7 6 6 6 3 2 2 3 4 4 5 5 5 5 5 4 4 3 4 6 7 8
8 9 11 12 13 14 13 11 9 7 7 6 5 4 2 0 1 2 3 4 5 5 5 4 3 3 4 5 5 5 6 6
10 10 12 13 14 15 14 12 11 10 9 8 7 6 4 4 5 5 5 6 6 6 7 6 5 5 4 5 5 4 5 8
11 11 12 14 15 15 14 14 13 13 12 11 11 8 7 6 7 8 8 8 7 7 7 7 7 6 5 7 6 7 8 9
14 13 13 16 14 14 13 13 14 14 14 14 13 11 9 7 9 9 8 8 8 8 8 7 7 7 8 7 6 7 8 11
15 16 14 15 13 13 14 13 13 15 16 16 15 13 12 11 12 10 7 8 8 9 8 9 9 9 8 8 7 5 6 9
15 15 16 17 15 15 15 16 16 15 17 16 16 15 14 15 13 9 9 9 8 10 10 8 10 8 6 6 6 8 12 15
16 15 17 19 17 15 15 17 17 17 20 18 17 15 14 17 16 13 11 9 10 11 12 12 11 9 7 7 8 10 13 18
18 19 17 20 19 17 17 17 17 19 21 20 18 15 17 18 17 14 14 13 14 17 17 12 12 10 9 11 13 17 21 24
22 21 23 22 23 21 19 19 19 20 23 21 18 18 19 17 17 16 17 19 21 19 16 14 12 13 13 14 17 21 23 27
32 31 26 26 27 26 22 22 22 23 25 20 18 20 20 19 18 19 21 22 21 17 16 15 14 14 15 18 20 24 27 29
37 35 31 29 29 31 28 27 25 24 23 21 20 19 20 21 21 23 24 22 18 17 17 16 16 16 18 20 22 27 29 31
40 41 37 34 33 33 33 30 26 24 22 21 20 19 19 21 23 26 25 21 19 18 19 18 20 21 23 22 24 29 31 34
41 44 41 40 36 35 35 33 27 24 22 22 22 20 20 20 21 22 21 20 19 21 20 21 23 25 26 26 26 30 32 35
44 44 47 46 45 42 37 36 32 29 27 26 23 22 22 19 18 21 21 22 22 22 21 23 25 27 28 29 34 35 33 29
45 46 46 50 48 45 40 37 37 32 28 25 24 25 25 21 20 23 22 23 23 22 23 24 26 27 30 33 37 38 40 43
46 46 43 45 44 44 41 41 37 33 31 30 29 29 26 25 24 26 25 25 25 25 25 26 27 28 30 33 35 37 40 44
46 50 48 46 44 41 40 41 40 38 36 36 34 32 30 28 28 28 28 27 26 26 26 27 29 30 32 34 36 37 38 40
43 48 48 48 47 42 41 42 42 38 37 36 37 35 33 33 31 30 30 29 29 28 28 29 31 32 33 35 37 38 40 41
43 48 52 50 47 42 42 44 44 42 39 38 38 36 36 36 34 32 30 30 30 29 29 31 32 33 35 36 36 37 38 39
Wind_Direction
205 212 205 203 205 203 203 206 201 190 179 180 178 161 150 102 57 40 27 20 25 21 20 19 18 22 25 18 11 4 353 346
208 211 209 207 213 219 217 216 216 213 214 213 217 222 194 205 341 338 351 347 347 344 339 333 335 333 337 345 354 351 338 335
216 212 215 213 217 222 226 228 228 226 233 240 250 265 289 300 299 302 311 314 317 317 308 302 296 295 311 307 303 319 331 302
223 221 221 227 225 227 229 232 237 240 243 250 261 272 287 295 292 293 292 285 290 291 289 285 282 288 296 286 295 322 323 325
229 226 234 232 230 233 237 243 247 251 252 257 267 279 285 270 287 286 280 279 279 288 285 276 271 270 271 276 306 315 334 344
228 234 235 230 220 235 242 245 255 259 260 262 268 276 273 289 302 300 277 271 277 278 276 257 259 273 291 314 324 340 346 333
231 235 236 228 239 239 245 246 249 258 262 265 270 275 279 299 293 280 280 281 272 280 274 277 288 289 289 294 311 325 324 322
239 239 229 235 249 254 250 251 247 250 258 261 262 271 278 286 280 275 282 276 278 287 293 291 281 283 284 290 302 304 303 306
253 251 244 242 254 255 259 265 256 250 254 259 266 273 276 283 271 267 277 270 263 270 277 277 280 281 279 280 295 305 311 316
276 268 262 255 259 261 264 268 266 255 256 257 263 268 273 273 251 253 264 260 269 272 271 268 264 264 280 301 306 308 313 315
267 273 268 263 260 261 264 267 271 265 259 259 258 262 268 261 252 259 257 260 267 262 256 252 259 275 288 297 305 304 311 316
268 263 265 263 259 260 260 262 269 273 263 253 255 261 262 260 261 258 262 265 263 257 255 256 266 282 293 300 301 307 315 316
257 260 260 261 259 262 259 263 266 274 260 251 250 257 263 265 256 256 264 263 256 253 257 268 280 288 293 301 307 311 316 316
248 258 258 263 256 262 257 257 258 261 252 246 250 256 266 273 265 263 260 254 249 252 261 275 285 292 298 300 303 308 315 314
252 257 263 261 260 265 259 249 248 249 243 247 252 257 263 271 269 252 251 250 252 260 269 278 291 299 300 306 311 312 310 307
261 261 266 263 266 264 266 251 253 251 254 249 253 255 261 265 262 256 256 256 259 264 272 284 293 298 306 312 315 314 314 314
265 264 270 272 270 267 266 251 248 245 244 245 249 255 261 263 262 261 261 261 265 270 277 286 295 301 304 308 310 311 312 313
259 263 265 270 269 271 269 250 247 244 244 247 252 257 260 263 261 261 261 262 267 273 280 287 296 299 304 309 310 309 310 306
252 261 266 266 269 269 270 254 246 244 245 249 253 256 260 262 263 262 261 262 265 272 281 290 295 301 308 310 311 310 309 305
247 256 262 265 265 267 272 258 247 243 243 248 253 255 257 258 260 259 261 262 267 275 283 290 297 302 308 310 310 307 302 301
Height
3184 3184 3185 3187 3188 3188 3188 3189 3190 3191 3191 3192 3192 3192 3194 3195 3196 3196 3196 3196 3196 3196 3195 3194 3194 3193 3192 3191 3191 3190 3190 3189
3183 3183 3184 3185 3186 3187 3188 3189 3190 3190 3191 3191 3192 3192 3193 3194 3194 3194 3194 3195 3194 3194 3194 3193 3192 3191 3191 3190 3189 3188 3188 3187
3181 3182 3183 3183 3184 3185 3187 3188 3189 3189 3189 3190 3190 3191 3192 3192 3192 3192 3193 3193 3193 3192 3191 3191 3190 3190 3189 3188 3187 3186 3185 3186
3180 3180 3181 3182 3182 3183 3185 3186 3187 3187 3187 3188 3188 3189 3190 3190 3189 3189 3190 3190 3190 3190 3189 3188 3188 3187 3187 3186 3185 3185 3184 3183
3178 3179 3179 3179 3181 3182 3183 3184 3185 3185 3185 3185 3186 3187 3188 3188 3187 3186 3186 3186 3187 3186 3186 3186 3185 3185 3185 3184 3183 3183 3182 3181
3175 3176 3177 3177 3179 3180 3181 3181 3182 3183 3183 3183 3183 3183 3183 3184 3183 3182 3182 3182 3182 3183 3183 3182 3182 3182 3181 3181 3181 3180 3180 3179
3172 3173 3174 3175 3176 3177 3178 3178 3179 3179 3179 3180 3181 3180 3179 3178 3178 3179 3179 3179 3179 3179 3179 3179 3179 3180 3179 3179 3179 3178 3178 3176
3169 3170 3171 3172 3173 3174 3175 3175 3176 3176 3175 3177 3177 3178 3177 3177 3176 3176 3176 3176 3175 3175 3177 3176 3176 3176 3176 3176 3177 3176 3175 3174
3165 3166 3168 3168 3169 3170 3171 3171 3172 3172 3172 3172 3174 3174 3174 3174 3173 3172 3173 3172 3173 3173 3174 3173 3174 3174 3174 3174 3173 3171 3169 3167
3162 3163 3163 3164 3165 3165 3166 3167 3168 3168 3167 3168 3170 3170 3170 3170 3168 3169 3169 3169 3169 3170 3171 3171 3172 3171 3171 3171 3169 3167 3165 3162
3156 3158 3159 3159 3160 3161 3161 3161 3162 3163 3163 3165 3165 3166 3166 3165 3165 3166 3165 3165 3167 3168 3168 3168 3167 3168 3167 3167 3165 3162 3159 3157
3149 3151 3153 3154 3154 3156 3157 3156 3157 3158 3159 3160 3160 3161 3161 3162 3162 3161 3161 3163 3165 3164 3164 3163 3163 3163 3163 3163 3160 3155 3153 3150
3143 3144 3147 3148 3150 3150 3152 3152 3153 3153 3154 3156 3156 3156 3157 3157 3157 3156 3157 3160 3160 3160 3159 3158 3158 3158 3157 3157 3154 3148 3147 3142
3137 3138 3139 3141 3143 3145 3146 3146 3148 3148 3150 3150 3151 3152 3152 3153 3153 3153 3154 3154 3155 3154 3154 3153 3153 3151 3150 3149 3149 3146 3141 3135
3130 3133 3133 3134 3136 3139 3140 3140 3140 3141 3144 3145 3147 3147 3147 3149 3148 3148 3149 3149 3150 3150 3150 3148 3146 3145 3143 3141 3136 3135 3133 3135
3120 3124 3126 3126 3128 3130 3132 3134 3134 3137 3139 3141 3141 3142 3141 3143 3143 3142 3145 3145 3145 3145 3144 3143 3141 3139 3135 3131 3127 3124 3119 3113
3111 3113 3117 3117 3120 3122 3123 3125 3126 3130 3132 3134 3135 3136 3137 3137 3138 3137 3138 3139 3139 3139 3138 3137 3135 3133 3131 3127 3124 3119 3112 3105
3105 3103 3107 3108 3111 3113 3114 3116 3117 3121 3124 3127 3129 3129 3131 3131 3131 3131 3132 3133 3132 3132 3131 3130 3129 3127 3124 3121 3118 3113 3109 3102
3098 3097 3096 3099 3101 3106 3105 3106 3108 3113 3116 3119 3121 3123 3123 3124 3125 3125 3125 3126 3126 3126 3125 3124 3122 3120 3117 3113 3108 3103 3098 3094
3090 3089 3087 3089 3094 3098 3098 3097 3098 3104 3107 3111 3113 3115 3116 3116 3117 3118 3119 3119 3119 3119 3118 3116 3115 3113 3109 3105 3101 3096 3092 3087